SAUDISAT 1C (SO-50) 1 27607U 02058C 26126.75054817 .00001267 00000+0 16651-3 0 9998 2 27607 64.5522 257.1785 0075639 270.0231 89.2208 14.82959317258315 SAUDISAT 2 1 28371U 04025F 26126.95247420 .00000272 00000+0 71831-4 0 9996 2 28371 98.5511 125.8705 0025848 64.7296 295.6576 14.56658652159745 SAUDISAT 3 1 31118U 07012B 26126.84504290 .00000296 00000+0 55942-4 0 9998 2 31118 98.1429 77.2263 0014733 4.4687 355.6648 14.71400538 21668 PISAT 1 41784U 16059B 26126.93309289 .00000936 00000+0 16717-3 0 9997 2 41784 97.8184 129.1609 0028499 340.3076 19.7027 14.68910629513681 FLYING LAPTOP 1 42831U 17042G 26126.98711257 .00002994 00000+0 23904-3 0 9993 2 42831 97.4511 284.1592 0017707 264.1987 95.7219 15.00880437480277 SALSAT 1 46495U 20068K 26126.92876227 .00006820 00000+0 24320-3 0 9993 2 46495 97.8866 127.5035 0011680 88.8107 271.4470 15.29197943309057